• In Austria
  • List of Countries
  • For 7 days
  • Water Temperature
  • Satellite Maps
  • Weather Map
  • News
  • Weather Widgets
  • user-avatar
    Login

    Hourly Weather Soma

    Today, 18 November, Saturday

    Time Temperature Precipitation Wind Pressure Humidity
    00:00 +14°C° 0 mm 1 mps 742 mmHg 66%
    01:00 +14°C° 0 mm 1 mps 742 mmHg 67%
    02:00 +14°C° 0 mm 2 mps 742 mmHg 68%
    03:00 +14°C° 0 mm 2 mps 742 mmHg 67%
    04:00 +13°C° 0 mm 1 mps 742 mmHg 67%
    05:00 +13°C° 0 mm 1 mps 742 mmHg 66%
    06:00 +13°C° 0 mm 1 mps 742 mmHg 65%
    07:00 +14°C° 0 mm 1 mps 742 mmHg 63%
    08:00 +14°C° 0 mm 1 mps 742 mmHg 58%
    09:00 +16°C° 0 mm 1 mps 742 mmHg 52%
    10:00 +19°C° 0 mm 1 mps 742 mmHg 46%
    11:00 +21°C° 0 mm 1 mps 741 mmHg 40%
    12:00 +20°C° 0 mm 2 mps 741 mmHg 39%
    13:00 +21°C° 0 mm 2 mps 741 mmHg 37%
    14:00 +23°C° 0 mm 2 mps 741 mmHg 36%
    15:00 +20°C° 0 mm 2 mps 740 mmHg 41%
    16:00 +20°C° 0 mm 1 mps 740 mmHg 46%
    17:00 +18°C° 0 mm 1 mps 740 mmHg 51%
    18:00 +18°C° 0.2 mm 1 mps 740 mmHg 55%
    19:00 +16°C° 0.2 mm 1 mps 740 mmHg 59%
    20:00 +15°C° 0.2 mm 1 mps 740 mmHg 64%
    21:00 +15°C° 0.1 mm 1 mps 740 mmHg 65%
    22:00 +15°C° 0.1 mm 1 mps 740 mmHg 67%
    23:00 +14°C° 0.1 mm 1 mps 740 mmHg 69%

    Tomorrow, 19 November, Sunday

    Time Temperature Precipitation Wind Pressure Humidity
    00:00 +14°C° 0.3 mm 1 mps 740 mmHg 70%
    01:00 +14°C° 0.3 mm 1 mps 740 mmHg 72%
    02:00 +14°C° 0.3 mm 1 mps 740 mmHg 74%
    03:00 +13°C° 0.2 mm 1 mps 740 mmHg 75%
    04:00 +13°C° 0.2 mm 1 mps 739 mmHg 76%
    05:00 +13°C° 0.2 mm 1 mps 739 mmHg 77%
    06:00 +13°C° 0 mm 1 mps 739 mmHg 77%
    07:00 +13°C° 0 mm 1 mps 739 mmHg 77%
    08:00 +13°C° 0 mm 1 mps 739 mmHg 76%
    09:00 +15°C° 0 mm 2 mps 740 mmHg 69%
    10:00 +17°C° 0 mm 3 mps 740 mmHg 61%
    11:00 +19°C° 0 mm 3 mps 740 mmHg 53%
    12:00 +19°C° 0 mm 4 mps 739 mmHg 51%
    13:00 +20°C° 0 mm 4 mps 739 mmHg 50%
    14:00 +20°C° 0 mm 4 mps 738 mmHg 48%
    15:00 +19°C° 0.2 mm 4 mps 738 mmHg 54%
    16:00 +17°C° 0.2 mm 3 mps 738 mmHg 61%
    17:00 +16°C° 0.2 mm 3 mps 738 mmHg 67%
    18:00 +14°C° 0.4 mm 3 mps 738 mmHg 71%
    19:00 +14°C° 0.4 mm 3 mps 738 mmHg 75%
    20:00 +13°C° 0.4 mm 3 mps 738 mmHg 79%
    21:00 +13°C° 0.4 mm 3 mps 738 mmHg 81%
    22:00 +13°C° 0.4 mm 4 mps 738 mmHg 82%
    23:00 +13°C° 0.4 mm 4 mps 738 mmHg 84%

    Day after tomorrow, 20 November, Monday

    Time Temperature Precipitation Wind Pressure Humidity
    00:00 +13°C° 0.4 mm 4 mps 739 mmHg 86%
    01:00 +12°C° 0.4 mm 3 mps 739 mmHg 89%
    02:00 +12°C° 0.4 mm 3 mps 739 mmHg 91%
    03:00 +13°C° 0.4 mm 2 mps 739 mmHg 92%
    04:00 +12°C° 0.4 mm 2 mps 739 mmHg 92%
    05:00 +12°C° 0.4 mm 1 mps 739 mmHg 93%
    06:00 +12°C° 0.3 mm 1 mps 738 mmHg 92%
    07:00 +12°C° 0.3 mm 1 mps 738 mmHg 91%
    08:00 +12°C° 0.3 mm 1 mps 738 mmHg 91%
    09:00 +13°C° 0.8 mm 2 mps 738 mmHg 83%
    10:00 +13°C° 0.8 mm 4 mps 738 mmHg 75%
    11:00 +15°C° 0.8 mm 5 mps 738 mmHg 68%
    12:00 +14°C° 1.1 mm 5 mps 738 mmHg 68%
    13:00 +14°C° 1.1 mm 5 mps 738 mmHg 69%
    14:00 +13°C° 1.1 mm 6 mps 737 mmHg 70%
    15:00 +12°C° 0.8 mm 5 mps 738 mmHg 73%
    16:00 +11°C° 0.8 mm 4 mps 738 mmHg 77%
    17:00 +10°C° 0.8 mm 3 mps 738 mmHg 80%
    18:00 +8°C° 0.7 mm 4 mps 739 mmHg 82%
    19:00 +8°C° 0.7 mm 4 mps 740 mmHg 84%
    20:00 +7°C° 0.7 mm 4 mps 740 mmHg 85%
    21:00 +6°C° 0.5 mm 5 mps 741 mmHg 84%
    22:00 +5°C° 0.5 mm 6 mps 742 mmHg 82%
    23:00 +5°C° 0.5 mm 6 mps 742 mmHg 80%

    21 November, Tuesday

    Time Temperature Precipitation Wind Pressure Humidity
    00:00 +4°C° 0.1 mm 6 mps 743 mmHg 80%
    01:00 +4°C° 0.1 mm 6 mps 743 mmHg 79%
    02:00 +5°C° 0.1 mm 5 mps 744 mmHg 78%
    03:00 +5°C° 0 mm 5 mps 744 mmHg 78%
    04:00 +4°C° 0 mm 4 mps 744 mmHg 79%
    05:00 +4°C° 0 mm 4 mps 745 mmHg 79%
    06:00 +4°C° 0 mm 3 mps 745 mmHg 79%
    07:00 +4°C° 0 mm 3 mps 746 mmHg 79%
    08:00 +4°C° 0 mm 2 mps 746 mmHg 78%
    09:00 +6°C° 0 mm 2 mps 746 mmHg 71%
    10:00 +7°C° 0 mm 3 mps 747 mmHg 64%
    11:00 +8°C° 0 mm 3 mps 747 mmHg 57%
    12:00 +9°C° 0 mm 3 mps 746 mmHg 53%
    13:00 +9°C° 0 mm 3 mps 746 mmHg 50%
    14:00 +9°C° 0 mm 3 mps 746 mmHg 46%
    15:00 +9°C° 0 mm 2 mps 746 mmHg 49%
    16:00 +8°C° 0 mm 2 mps 746 mmHg 51%
    17:00 +8°C° 0 mm 1 mps 746 mmHg 54%
    18:00 +7°C° 0 mm 1 mps 746 mmHg 56%
    19:00 +7°C° 0 mm 1 mps 747 mmHg 58%
    20:00 +6°C° 0 mm 1 mps 747 mmHg 60%
    21:00 +6°C° 0 mm 1 mps 747 mmHg 61%
    22:00 +6°C° 0 mm 1 mps 747 mmHg 61%
    23:00 +6°C° 0 mm 1 mps 747 mmHg 62%

    22 November, Wednesday

    Time Temperature Precipitation Wind Pressure Humidity
    00:00 +5°C° 0 mm 1 mps 747 mmHg 61%
    01:00 +5°C° 0 mm 1 mps 747 mmHg 61%
    02:00 +5°C° 0 mm 1 mps 746 mmHg 60%
    03:00 +5°C° 0 mm 1 mps 746 mmHg 60%
    04:00 +5°C° 0 mm 1 mps 746 mmHg 59%
    05:00 +5°C° 0 mm 1 mps 746 mmHg 59%
    06:00 +5°C° 0 mm 1 mps 746 mmHg 58%
    07:00 +6°C° 0 mm 1 mps 747 mmHg 57%
    08:00 +6°C° 0 mm 1 mps 747 mmHg 56%
    09:00 +8°C° 0 mm 1 mps 747 mmHg 51%
    10:00 +10°C° 0 mm 1 mps 747 mmHg 46%
    11:00 +12°C° 0 mm 1 mps 747 mmHg 42%
    12:00 +13°C° 0 mm 1 mps 747 mmHg 42%
    13:00 +13°C° 0 mm 1 mps 747 mmHg 42%
    14:00 +14°C° 0 mm 1 mps 746 mmHg 42%
    15:00 +13°C° 0 mm 1 mps 747 mmHg 48%
    16:00 +12°C° 0 mm 1 mps 747 mmHg 53%
    17:00 +11°C° 0 mm 1 mps 747 mmHg 58%
    18:00 +10°C° 0 mm 1 mps 747 mmHg 60%
    19:00 +10°C° 0 mm 1 mps 747 mmHg 62%
    20:00 +9°C° 0 mm 0 mps 748 mmHg 65%
    21:00 +9°C° 0 mm 1 mps 748 mmHg 66%
    22:00 +9°C° 0 mm 1 mps 748 mmHg 67%
    23:00 +9°C° 0 mm 1 mps 748 mmHg 68%

    23 November, Thursday

    Time Temperature Precipitation Wind Pressure Humidity
    00:00 +9°C° 0 mm 1 mps 748 mmHg 70%
    01:00 +8°C° 0 mm 1 mps 748 mmHg 71%
    02:00 +8°C° 0 mm 1 mps 748 mmHg 72%
    03:00 +8°C° 0 mm 1 mps 749 mmHg 73%
    04:00 +8°C° 0 mm 1 mps 749 mmHg 75%
    05:00 +8°C° 0 mm 1 mps 749 mmHg 76%
    06:00 +7°C° 0 mm 2 mps 749 mmHg 77%
    07:00 +7°C° 0 mm 2 mps 749 mmHg 77%
    08:00 +7°C° 0 mm 2 mps 750 mmHg 77%
    09:00 +9°C° 0 mm 2 mps 750 mmHg 70%
    10:00 +12°C° 0 mm 2 mps 750 mmHg 64%
    11:00 +14°C° 0 mm 2 mps 750 mmHg 57%
    12:00 +13°C° 0 mm 3 mps 750 mmHg 55%
    13:00 +14°C° 0 mm 3 mps 749 mmHg 52%
    14:00 +14°C° 0 mm 3 mps 749 mmHg 49%
    15:00 +13°C° 0 mm 3 mps 749 mmHg 54%
    16:00 +12°C° 0 mm 3 mps 749 mmHg 59%
    17:00 +10°C° 0 mm 2 mps 749 mmHg 64%
    18:00 +10°C° 0 mm 2 mps 750 mmHg 68%
    19:00 +9°C° 0 mm 2 mps 750 mmHg 71%
    20:00 +8°C° 0 mm 2 mps 750 mmHg 74%
    21:00 +8°C° 0 mm 2 mps 750 mmHg 75%
    22:00 +8°C° 0 mm 2 mps 750 mmHg 76%
    23:00 +7°C° 0 mm 2 mps 750 mmHg 78%
    Show more